Weather History for Escanaba, MI

Change the Weather History Date:

Tuesday, December 17, 2013

  Actual Average Record
Temperature  
Mean Temperature 17 °F -  
Max Temperature 24 °F 29 °F 41 °F (1966)
Min Temperature 10 °F 16 °F -8 °F (1964)
Degree Days  
Heating Degree Days 48    
Moisture  
Dew Point 13 °F    
Average Humidity 75    
Maximum Humidity 92    
Minimum Humidity 58    
Precipitation  
Precipitation 0.00 in - - ()
Sea Level Pressure  
Sea Level Pressure 29.81 in    
Wind  
Wind Speed 5 mph (West)    
Max Wind Speed 15 mph    
Max Gust Speed 24 mph    
Visibility 8 miles    
Events      
Averages and records for this station are not official NWS values.
T = Trace of Precipitation, MM = Missing Value Source: NWS Daily Summary

Daily Weather History Graph

Daily Weather History Graph

Search for Another Location

Airport:

Trip Planner

Search our weather history database for the weather conditions in past years. The results will help you decide how hot, cold, wet, or windy it might be!

Date:

Astronomy

Dec. 17, 2013 Rise Set
Actual Time 8:24 AM EST 5:05 PM EST
Civil Twilight 7:49 AM EST 5:39 PM EST
Nautical Twilight 7:11 AM EST 6:17 PM EST
Astronomical Twilight 6:35 AM EST 6:53 PM EST
Moon 5:48 PM EST (12/17) 8:16 AM EST (12/17)
Length of Visible Light 9h 50m
Length of Day
8h 41m
Full, 100% of the Moon is Illuminated
Dec 17
Full
Dec 25
Last Quarter
Jan 1
New
Jan 7
First Quarter
Jan 15
Full

Hourly Weather History & Observations

Time (EST) Temp. Windchill Dew Point Humidity Pressure Visibility Wind Dir Wind Speed Gust Speed Precip Events Conditions
9:35 AM 10.4 °F - 6.8 °F 85% 29.79 in 2.5 mi Calm Calm - N/A   Unknown
9:55 AM 10.4 °F - 6.8 °F 85% 29.80 in 2.0 mi Calm Calm - N/A   Overcast
10:15 AM 10.4 °F - 8.6 °F 92% 29.80 in 2.0 mi Calm Calm - N/A   Overcast
10:35 AM 12.2 °F - 8.6 °F 85% 29.79 in 2.5 mi Calm Calm - N/A   Overcast
10:55 AM 12.2 °F - 8.6 °F 85% 29.79 in 3.0 mi Calm Calm - N/A   Overcast
11:15 AM 12.2 °F 2.9 °F 10.4 °F 92% 29.79 in 5.0 mi WSW 5.8 mph - N/A   Overcast
11:35 AM 14.0 °F 2.9 °F 10.4 °F 86% 29.78 in 5.0 mi West 8.1 mph - N/A   Overcast
11:55 AM 15.8 °F 5.1 °F 12.2 °F 86% 29.78 in 5.0 mi West 8.1 mph - N/A   Overcast
12:15 PM 15.8 °F 5.1 °F 12.2 °F 86% 29.77 in 5.0 mi West 8.1 mph - N/A   Overcast
12:35 PM 17.6 °F 8.2 °F 12.2 °F 79% 29.77 in 5.0 mi West 6.9 mph - N/A   Overcast
12:55 PM 17.6 °F 9.3 °F 12.2 °F 79% 29.77 in 5.0 mi WSW 5.8 mph - N/A   Overcast
1:15 PM 19.4 °F 9.5 °F 14.0 °F 80% 29.76 in 7.0 mi West 8.1 mph - N/A   Mostly Cloudy
1:35 PM 21.2 °F 8.9 °F 12.2 °F 68% 29.76 in 9.0 mi West 12.7 mph - N/A   Partly Cloudy
1:55 PM 21.2 °F 9.5 °F 12.2 °F 68% 29.76 in 9.0 mi WNW 11.5 mph - N/A   Scattered Clouds
2:15 PM 23.0 °F 12.4 °F 15.8 °F 74% 29.76 in 10.0 mi West 10.4 mph 16.1 mph N/A   Scattered Clouds
2:35 PM 24.8 °F 12.9 °F 15.8 °F 69% 29.76 in 10.0 mi WNW 13.8 mph 21.9 mph N/A   Mostly Cloudy
2:55 PM 24.8 °F 13.4 °F 17.6 °F 74% 29.76 in 10.0 mi West 12.7 mph 18.4 mph N/A   Overcast
3:15 PM 24.8 °F 14.0 °F 17.6 °F 74% 29.77 in 10.0 mi West 11.5 mph 18.4 mph N/A   Overcast
3:35 PM 24.8 °F 15.3 °F 15.8 °F 69% 29.77 in 10.0 mi West 9.2 mph - N/A   Overcast
3:55 PM 24.8 °F 15.3 °F 17.6 °F 74% 29.77 in 10.0 mi West 9.2 mph - N/A   Overcast
4:15 PM 24.8 °F 16.1 °F 15.8 °F 69% 29.78 in 10.0 mi West 8.1 mph - N/A   Overcast
4:35 PM 24.8 °F 16.9 °F 15.8 °F 69% 29.79 in 10.0 mi WSW 6.9 mph - N/A   Scattered Clouds
4:55 PM 24.8 °F 17.9 °F 15.8 °F 69% 29.79 in 10.0 mi WSW 5.8 mph - N/A   Clear
5:15 PM 23.0 °F 17.0 °F 15.8 °F 74% 29.80 in 10.0 mi SW 4.6 mph - N/A   Clear
5:35 PM 21.2 °F - 15.8 °F 80% 29.80 in 10.0 mi Calm Calm - N/A   Scattered Clouds
5:55 PM 21.2 °F - 15.8 °F 80% 29.81 in 10.0 mi Calm Calm - N/A   Mostly Cloudy
6:15 PM 23.0 °F - 17.6 °F 80% 29.82 in 10.0 mi Calm Calm - N/A   Mostly Cloudy
6:35 PM 21.2 °F - 15.8 °F 80% 29.82 in 10.0 mi Calm Calm - N/A   Partly Cloudy
6:55 PM 21.2 °F - 15.8 °F 80% 29.82 in 10.0 mi Calm Calm - N/A   Scattered Clouds
7:15 PM 21.2 °F 14.9 °F 15.8 °F 80% 29.83 in 10.0 mi WSW 4.6 mph - N/A   Mostly Cloudy
7:35 PM 19.4 °F 12.8 °F 15.8 °F 86% 29.84 in 10.0 mi WSW 4.6 mph - N/A   Overcast
7:55 PM 21.2 °F 16.4 °F 15.8 °F 80% 29.85 in 10.0 mi West 3.5 mph - N/A   Overcast
8:15 PM 21.2 °F 12.6 °F 17.6 °F 86% 29.85 in 10.0 mi WNW 6.9 mph - N/A   Overcast
8:35 PM 23.0 °F 14.7 °F 17.6 °F 80% 29.86 in 10.0 mi WNW 6.9 mph - N/A   Overcast
8:55 PM 24.8 °F 14.6 °F 15.8 °F 69% 29.86 in 10.0 mi WNW 10.4 mph - N/A   Overcast
9:15 PM 24.8 °F 12.4 °F 12.2 °F 59% 29.87 in 10.0 mi NW 15.0 mph 24.2 mph N/A   Overcast
9:35 PM 23.0 °F 10.1 °F 10.4 °F 59% 29.88 in 10.0 mi NW 15.0 mph 19.6 mph N/A   Overcast
9:55 PM 23.0 °F 13.9 °F 12.2 °F 63% 29.88 in 10.0 mi WNW 8.1 mph - N/A   Overcast
10:15 PM 21.2 °F 8.9 °F 10.4 °F 63% 29.88 in 10.0 mi WNW 12.7 mph 16.1 mph N/A   Overcast
10:35 PM 21.2 °F 8.9 °F 10.4 °F 63% 29.88 in 10.0 mi WNW 12.7 mph - N/A   Overcast
10:55 PM 21.2 °F 10.9 °F 10.4 °F 63% 29.90 in 10.0 mi NW 9.2 mph - N/A   Overcast
11:15 PM 21.2 °F 10.1 °F 10.4 °F 63% 29.91 in 10.0 mi NW 10.4 mph - N/A   Overcast
11:35 PM 21.2 °F 10.9 °F 10.4 °F 63% 29.91 in 10.0 mi NW 9.2 mph - N/A   Overcast
11:55 PM 21.2 °F 11.7 °F 8.6 °F 58% 29.92 in 10.0 mi NNW 8.1 mph - N/A   Overcast